View from above orbital plane
|
View from above satellite
|
Ground track
|
The orbit data is extracted from the following two-line orbital elements,
1 11327U 79030B 21110.59707479 -.00000010 00000-0 -25590-4 0 9994
2 11327 82.9492 333.8626 0027028 208.7925 207.2827 13.76961258112058
Epoch (UTC): | 20 April 2021 14:19:47 |
Eccentricity: | 0.0027028 |
inclination: | 82.9492° |
perigee height: | 955 km |
apogee height: | 994 km |
right ascension of ascending node: | 333.8626° |
argument of perigee: | 208.7925° |
revolutions per day: | 13.76961258 |
mean anomaly at epoch: | 207.2827° |
orbit number at epoch: | 11205 |
The dashed part of the orbit path shows where the satellite is in the earth's shadow,
|
|